Regional Weather Roundup
Issued by NWS

Home | Current Version | Previous Version | Text Only | Print | Product List | Glossary Off
Versions: 1 2 3 4 5 6 7 8 9 10 11 12 13 14 15 16 17 18 19 20 21 22 23 24 25 26 27 28 29 30 31 32 33 34 35 36 37 38 39 40 41 42 43 44 45 46 47 48 49 50

248
ASUS43 KLOT 270008
RWRIL

ILLINOIS REGIONAL WEATHER ROUNDUP
NATIONAL WEATHER SERVICE CHICAGO/ROMEOVILLE IL
700 PM CDT MON SEP 26 2016

NOTE: "FAIR" INDICATES FEW OR NO CLOUDS BELOW 12,000 FEET WITH NO
SIGNIFICANT WEATHER AND/OR OBSTRUCTIONS TO VISIBILITY.

* THESE STATIONS ARE NOT UNDER NWS QUALITY CONTROL. THEY ALSO MAY NOT
  REPORT WEATHER SUCH AS PRECIPITATION OR FOG.

ILZ001-002-007-009-015-016-024-270100-
NORTHWEST ILLINOIS

CITY           SKY/WX    TMP DP  RH WIND       PRES   REMARKS
MOLINE         CLEAR     62  40  44 SW7       29.98S
6HR MIN TEMP:  62; 6HR MAX TEMP:  72;

STERLING*      CLEAR     61  37  41 W9        29.97R
SAVANNA*       CLEAR     65  36  33 W6        29.95S
$$

ILZ003-004-008-010-011-017-018-270100-
NORTH CENTRAL ILLINOIS

CITY           SKY/WX    TMP DP  RH WIND       PRES   REMARKS
ROCKFORD       CLEAR     62  35  36 W8        29.95S
6HR MIN TEMP:  62; 6HR MAX TEMP:  69;

FREEPORT*      CLEAR     60  35  38 W9        29.95F
ROCHELLE*      CLEAR     61  37  39 W9        29.96S
DE KALB*       CLEAR     62  34  35 W9        29.96R
$$

ILZ005-006-012>014-019>023-270100-
NORTHEAST ILLINOIS

CITY           SKY/WX    TMP DP  RH WIND       PRES   REMARKS
CHICAGO-OHARE  CLEAR     65  32  29 W15       29.93R
6HR MIN TEMP:  65; 6HR MAX TEMP:  69;

CHICAGO-MIDWAY PTCLDY    67  31  26 W13G23    29.94R
6HR MIN TEMP:  67; 6HR MAX TEMP:  72;

AURORA         CLEAR     63  35  35 W10       29.96R
6HR MIN TEMP:  63; 6HR MAX TEMP:  71;

LANSING*       CLEAR     65  37  35 W12G21    29.95R
JOLIET*        CLEAR     66  34  30 W7        29.96S
WAUKEGAN       CLEAR     63  34  33 VRB3      29.90R
6HR MIN TEMP:  63; 6HR MAX TEMP:  68;

DUPAGE AIRPORT CLEAR     63  34  33 W10       29.94R
6HR MIN TEMP:  63; 6HR MAX TEMP:  69;

KANKAKEE*      CLEAR     64  33  32 W6        29.98R
WHEELING       CLEAR     65  32  29 W7G16     29.93R
6HR MIN TEMP:  65; 6HR MAX TEMP:  69;

MORRIS*        CLEAR     65  33  30 W8        29.96R
ROMEOVILLE*    CLEAR     64  39  40 W10G17    29.96R
NORTHERLY ISL    N/A     68  31  25 W9          N/A
$$

LMZ740>746-270100-
SOUTHERN LAKE MICHIGAN

STATION/POSITION SKY/WX   TEMP    WIND        PRES    VSBY  WAVE
                          AIR SEA DIR/SP/G                  HT/PER
                          (F)     (DEG/KT/KT) (MB)    (MI)  (FT/S)
SOUTHERN BUOY              67 71  250/ 23/ 27 1010.9F         5/ 5
WILMETTE HARBOR            65 63  290/ 12/ 16   N/A           2/ 3
HARRISON CRIB              69     270/ 26/ 32   N/A
BURNHAM HARBOR             67     260/  8/ 15   N/A
CALUMET HARBOR             69     250/  9/ 16 1012.9F
BURNS HARBOR               68     270/ 22     1013.5S
MICHIGAN CITY              67     240/ 24/ 27   N/A
MICHIGAN CITY 6N           68 67  290/ 21/ 29   N/A           6/ 5
ST. JOSEPH                 67 64  280/ 21/ 29 1013.1R         7/ 6
$$

ILZ025>027-034>036-040-047-049-050-058-095>099-270100-
WEST-CENTRAL ILLINOIS

CITY           SKY/WX    TMP DP  RH WIND       PRES   REMARKS
QUINCY         CLEAR     65  39  38 W6        30.06F
GALESBURG*     CLEAR     64  37  35 MISG        N/A
MACOMB*        CLEAR     65  36  34 W8        30.05F
JACKSONVILLE*    N/A     66  35  31 W8        30.06S
PITTSFIELD*    CLEAR     66  41  39 W3        30.08S
$$

ILZ028>032-037-038-041>044-048-051>054-059>061-270100-
CENTRAL ILLINOIS

CITY           SKY/WX    TMP DP  RH WIND       PRES   REMARKS
PONTIAC        CLEAR     65  36  33 W9        30.00R
BLOOMINGTON    CLEAR     65  34  31 W10       30.03R
DECATUR        CLEAR     68  34  28 W9        30.04S
PEORIA         CLEAR     66  35  31 W8        30.01F
6HR MIN TEMP:  66; 6HR MAX TEMP:  73;

LACON*         PTCLDY    66  31  26 W5        29.99S
SPRINGFIELD    CLEAR     65  37  35 W7        30.05S
6HR MIN TEMP:  65; 6HR MAX TEMP:  76;

TAYLORVILLE    CLEAR     64  37  36 W6        30.06S
6HR MIN TEMP:  64; 6HR MAX TEMP:  74;

$$

ILZ033-039-045-046-055>057-062-063-270100-
EAST-CENTRAL ILLINOIS

CITY           SKY/WX    TMP DP  RH WIND       PRES   REMARKS
CHAMPAIGN      CLEAR     60  38  43 W6        30.02F
RANTOUL*       CLEAR     67  35  31 W8        30.01S
MATTOON        CLEAR     66  33  29 W6        30.04R
PARIS*         CLEAR     64  39  39 W3        30.04R
$$

ILZ079-100>102-270100-
SOUTHWEST ILLINOIS

CITY           SKY/WX    TMP DP  RH WIND       PRES   REMARKS
ALTON          CLEAR     59  45  58 W7        30.08F
BELLEVILLE     CLEAR     64  44  48 NW3       30.07S
CAHOKIA*       CLEAR     69  36  29 W6        30.08S
SPARTA*        CLEAR     65  46  51 CALM      30.10S
$$

ILZ064>066-069>071-074>076-080>082-084>086-088>090-092>094-270100-
SOUTH-CENTRAL ILLINOIS

CITY           SKY/WX    TMP DP  RH WIND       PRES   REMARKS
CARBONDALE     CLEAR     63  50  62 NW6       30.09R
6HR MIN TEMP:  62; 6HR MAX TEMP:  73;

CAIRO*         CLEAR     64  55  73 CALM      30.09S
EFFINGHAM*     CLEAR     63  45  50 SW6       30.07S
MARION         CLEAR     64  52  63 CALM      30.09S
MT. VERNON     CLEAR     61  48  63 CALM      30.09S
CENTRALIA*     CLEAR     64  46  52 W5        30.07S
SALEM*         CLEAR     65  44  46 W5        30.08S
METROPOLIS*    CLEAR     64  55  72 CALM      30.09S
$$

ILZ067-068-072-073-078-083-087-091-270100-
SOUTHEAST ILLINOIS

CITY           SKY/WX    TMP DP  RH WIND       PRES   REMARKS
LAWRENCEVILLE  CLEAR     65  43  44 W6        30.06R
FLORA*         CLEAR     65  47  52 SW5       30.07S
FAIRFIELD*     CLEAR     61  51  69 CALM      30.06F
HARRISBURG*    CLEAR     66  53  63 CALM      30.08S
ROBINSON*      CLEAR     57  47  70 W7        30.06S
CARMI*         CLEAR     62  50  64 W5        30.07S
$$

ABBREVIATIONS USED IN REMARKS
   TC - TEMPERATURE IN CELSIUS
  WCI - WIND CHILL INDEX
   HX - HEAT INDEX
  VSB - VISIBILITY
$$





USA.gov is the U.S. government's official web portal to all federal, state and local government web resources and services.